N2UGS-WX Weather Reports


Display with metric or nautical units.
time (UTC)temp
F
wind
direction
speed
MPH
gust
MPH
rain 1hr
in
rain 24hr
in
rain mn
in
humidity
%
barometer
mb
20260831040402 63 327 0.0 0.0 0.00 0.00 0.00 100 1020.3
20260831035502 63 64 0.0 0.0 0.00 0.00 0.10 100 1020.0
20260831034002 63 201 0.0 0.0 0.00 0.00 0.10 100 1020.0
20260831032501 63 126 0.0 0.0 0.00 0.00 0.10 100 1020.0
20260831031402 63 307 0.0 0.0 0.00 0.00 0.10 100 1020.0
20260831030003 63 314 0.0 0.0 0.01 0.00 0.10 100 1020.0
20260831024503 63 308 0.0 0.0 0.01 0.00 0.10 100 1020.0
20260831023003 63 173 0.0 3.0 0.01 0.00 0.10 100 1020.0
20260831021501 63 221 2.0 2.0 0.01 0.00 0.10 100 1020.0
20260831020002 63 233 4.0 4.0 0.00 0.00 0.09 100 1020.0
20260831014502 63 302 0.0 0.0 0.00 0.00 0.09 100 1020.0
20260831013002 63 263 0.0 0.0 0.00 0.00 0.09 100 1020.0
20260831011502 63 355 0.0 0.0 0.00 0.00 0.09 100 1020.0
20260831005902 63 317 0.0 0.0 0.00 0.00 0.09 100 1020.0
20260831004502 63 60 0.0 3.0 0.00 0.00 0.09 100 1020.0
20260831003501 63 253 0.0 2.0 0.00 0.00 0.09 100 1020.0
20260831002002 63 238 0.0 0.0 0.01 0.00 0.09 100 1020.0
20260831000502 63 312 0.0 0.0 0.01 0.00 0.09 100 1020.0
20260830235502 63 300 0.0 0.0 0.02 0.00 0.09 100 1020.0
20260830234003 63 158 0.0 0.0 0.02 0.00 0.08 100 1020.0
20260830232502 63 243 0.0 0.0 0.02 0.00 0.08 100 1020.0
20260830231002 63 251 0.0 0.0 0.01 0.00 0.07 100 1020.0
20260830225501 63 315 0.0 0.0 0.00 0.00 0.06 100 1020.0
20260830224401 63 320 0.0 0.0 0.01 0.00 0.06 100 1020.0
20260830223002 63 328 0.0 0.0 0.01 0.00 0.06 100 1020.0
20260830221402 63 303 0.0 0.0 0.01 0.00 0.06 100 1020.0
20260830215902 63 311 0.0 0.0 0.01 0.00 0.06 100 1020.0
20260830214402 63 303 0.0 0.0 0.00 0.00 0.05 100 1020.0
20260830213001 63 250 2.0 3.0 0.00 0.00 0.05 100 1020.0
20260830211402 63 275 0.0 1.0 0.00 0.00 0.05 100 1019.6
20260830210003 63 272 0.0 2.0 0.00 0.00 0.05 100 1020.0
20260830205001 63 259 0.0 2.0 0.00 0.00 0.05 100 1020.0
20260830203402 63 279 0.0 0.0 0.00 0.00 0.05 100 1020.0
20260830202401 63 310 0.0 3.0 0.00 0.00 0.05 100 1020.3
20260830201001 63 275 3.0 3.0 0.01 0.00 0.05 100 1020.3
20260830195502 63 266 2.0 2.0 0.01 0.00 0.05 100 1020.3
20260830194402 63 320 0.0 2.0 0.01 0.00 0.05 100 1020.3
20260830192902 63 291 1.0 3.0 0.01 0.00 0.05 100 1020.3
20260830191502 63 262 3.0 5.0 0.01 0.00 0.04 100 1020.3
20260830190002 63 319 0.0 3.0 0.01 0.00 0.04 100 1020.7
20260830184502 63 311 2.0 3.0 0.02 0.00 0.04 100 1020.7
20260830183021 63 275 2.0 3.0 0.02 0.00 0.04 100 1021.0
20260830181501 63 257 5.0 7.0 0.01 0.00 0.03 100 1021.0
20260830180002 63 251 2.0 8.0 0.01 0.00 0.03 100 1020.7
20260830174502 63 303 2.0 3.0 0.00 0.00 0.02 100 1020.7
20260830173002 63 291 0.0 0.0 0.00 0.00 0.02 100 1020.7
20260830171902 63 235 0.0 0.0 0.00 0.00 0.02 100 1020.7
20260830165502 63 319 0.0 3.0 0.00 0.00 0.02 100 1020.7
20260830164002 63 351 0.0 3.0 0.00 0.00 0.02 100 1020.7
20260830162402 63 332 0.0 0.0 0.00 0.00 0.02 100 1020.7
20260830161002 63 227 0.0 0.0 0.02 0.00 0.02 100 1021.0
20260830155501 63 292 0.0 0.0 0.02 0.00 0.02 100 1021.0
20260830153903 63 307 1.0 2.0 0.02 0.00 0.02 100 1021.0
20260830152501 63 354 1.0 7.0 0.02 0.00 0.02 100 1021.3
20260830151002 63 308 3.0 5.0 0.00 0.00 0.00 100 1021.0
20260830145502 63 300 3.0 5.0 0.00 0.00 0.00 100 1020.7
20260830144302 63 276 1.0 1.0 0.00 0.00 0.00 100 1020.7
20260830142001 63 16 0.0 0.0 0.00 0.00 0.00 100 1020.0
20260830140502 63 294 0.0 0.0 0.00 0.00 0.00 100 1020.3
20260830135003 63 322 0.0 0.0 0.00 0.00 0.00 100 1020.0
20260830133902 63 287 0.0 2.0 0.00 0.00 0.00 100 1020.0
20260830132501 63 281 0.0 0.0 0.00 0.00 0.00 100 1020.0
20260830131001 63 281 0.0 0.0 0.00 0.00 0.00 100 1019.6
20260830125501 63 171 0.0 2.0 0.00 0.00 0.00 100 1020.0
20260830124003 63 357 2.0 3.0 0.00 0.00 0.00 100 1020.3
20260830122502 63 327 0.0 0.0 0.00 0.00 0.00 100 1019.6
20260830121003 63 254 0.0 0.0 0.00 0.00 0.00 100 1020.0
20260830115502 63 229 0.0 0.0 0.00 0.00 0.00 100 1020.0
20260830113502 63 116 0.0 0.0 0.00 0.00 0.00 100 1020.0
20260830112002 63 302 0.0 0.0 0.00 0.00 0.00 100 1020.0
20260830110501 63 312 0.0 0.0 0.00 0.00 0.00 100 1020.0
20260830104901 63 44 0.0 0.0 0.00 0.00 0.00 100 1020.0
20260830103402 63 358 0.0 0.0 0.00 0.00 0.00 100 1020.0
20260830101902 63 322 0.0 0.0 0.00 0.00 0.00 100 1020.0
20260830100402 63 139 0.0 0.0 0.00 0.00 0.00 100 1020.0
20260830094903 63 88 0.0 0.0 0.00 0.00 0.00 100 1020.0
20260830093501 63 187 0.0 2.0 0.00 0.00 0.00 100 1020.0
20260830092002 63 262 0.0 1.0 0.00 0.00 0.00 100 1020.0
20260830090401 63 88 0.0 0.0 0.00 0.00 0.00 100 1019.6
20260830084902 63 205 0.0 1.0 0.00 0.00 0.00 100 1020.0
20260830083502 63 190 0.0 0.0 0.00 0.00 0.00 100 1020.3
20260830082002 63 142 0.0 0.0 0.00 0.00 0.00 100 1020.3
20260830080902 63 203 0.0 0.0 0.00 0.00 0.00 100 1020.3
20260830075502 63 157 0.0 0.0 0.00 0.00 0.00 100 1020.7
20260830074402 63 270 0.0 0.0 0.00 0.00 0.00 100 1020.3
20260830073002 63 317 0.0 0.0 0.00 0.00 0.00 100 1020.3
20260830071902 63 4 0.0 0.0 0.00 0.00 0.00 100 1020.3
20260830070502 63 268 0.0 0.0 0.00 0.00 0.00 100 1020.3
20260830065502 63 253 2.0 2.0 0.00 0.00 0.00 100 1020.7
20260830064402 63 311 0.0 1.0 0.00 0.00 0.00 100 1020.3
20260830063003 63 285 0.0 1.0 0.00 0.00 0.00 100 1020.7
20260830061902 63 275 0.0 2.0 0.00 0.00 0.00 100 1020.7
20260830060502 63 218 1.0 2.0 0.00 0.00 0.00 100 1020.7
20260830055002 63 174 0.0 4.0 0.00 0.00 0.00 100 1020.7
20260830053501 63 165 1.0 2.0 0.00 0.00 0.00 100 1020.7
20260830052402 63 220 3.0 3.0 0.00 0.00 0.00 100 1020.7
20260830051003 63 269 0.0 1.0 0.00 0.00 0.00 100 1020.7
20260830045501 63 169 0.0 1.0 0.00 0.00 0.00 100 1021.0
20260830044402 63 265 0.0 1.0 0.00 0.00 0.00 100 1020.7
20260830043002 63 289 0.0 0.0 0.00 0.00 0.00 100 1021.0
20260830041902 63 24 0.0 0.0 0.00 0.00 0.00 100 1020.7